This demonstration page uses our WeatherBlox Daily Observations layout. Learn more.

Left ArrowRight Arrow

39.08367, -84.50855

Hourly Observations for May 24, 2016

Temp ( °F °C ) Dew Point ( °F °C ) Humidity (%) Winds ( mph kmh ) Pressure ( in mb ) Visibility ( mi km ) Precip ( " mm )
12:53 am 00:53 Clear 54 12.2 53 11.7 97 97 Calm 30.05 1018 10 16 0.00 0.00
1:53 am 01:53 Clear with Mist and Fog 52 11.1 52 11.1 100 100 Calm 30.04 1017 6 10 0.00 0.00
2:53 am 02:53 Clear with Mist and Fog 52 11.1 52 11.1 100 100 Calm 30.03 1017 6 10 0.00 0.00
3:31 am 03:31 Clear with Mist and Fog 51 10.6 51 10.6 100 100 Calm 30.03 1017 3 4 0.00 0.00
3:38 am 03:38 Clear with Mist and Fog 52 11 52 11 100 100 Calm 30.03 1017 3 5 0.00 0.00
3:43 am 03:43 Clear with Mist and Fog 51 10.6 51 10.6 100 100 Calm 30.03 1017 2 3 0.00 0.00
3:53 am 03:53 Clear with Mist and Fog 51 10.6 51 10.6 100 100 Calm 30.03 1017 1 1 0.00 0.00
4:04 am 04:04 Clear with Mist and Fog 50 10 50 10 100 100 Calm 30.03 1017 2 3 0.00 0.00
4:12 am 04:12 Clear with Mist and Fog 50 10 50 10 100 100 Calm 30.03 1017 3 5 0.00 0.00
4:53 am 04:53 Clear with Mist and Fog 51 10.6 51 10.6 100 100 Calm 30.05 1018 5 8 0.00 0.00
5:10 am 05:10 Clear with Fog 50 10 50 10 100 100 Calm 30.06 1018 1 1 0.00 0.00
5:23 am 05:23 Clear with Mist and Fog 50 10 50 10 100 100 Calm 30.06 1018 2 2 0.00 0.00
5:42 am 05:42 Clear with Fog 48 8.9 48 8.9 100 100 NE 3 6 30.06 1018 1 1 0.00 0.00
5:48 am 05:48 Clear with Mist and Fog 48 9 48 9 100 100 Calm 30.06 1018 3 4 0.00 0.00
5:53 am 05:53 Clear with Mist and Fog 50 10 50 10 100 100 Calm 30.07 1018 4 6 0.00 0.00
6:06 am 06:06 Clear with Mist and Fog 50 10 50 10 100 100 Calm 30.09 1019 2 3 0.00 0.00
6:23 am 06:23 Sunny with Mist and Fog 49 9.4 49 9.4 100 100 Calm 30.09 1019 2 2 0.00 0.00
6:30 am 06:30 Sunny with Fog 46 8 46 8 100 100 Calm 30.09 1019 0 0 0.00 0.00
6:42 am 06:42 Mostly Cloudy with Fog 48 9 48 9 100 100 Calm 30.09 1019 1 1 0.00 0.00
6:45 am 06:45 Sunny with Mist and Fog 49 9.4 49 9.4 100 100 Calm 30.09 1019 2 3 0.00 0.00
6:47 am 06:47 Sunny with Mist and Fog 48 9 48 9 100 100 Calm 30.09 1019 3 5 0.00 0.00
6:53 am 06:53 Sunny 49 9.4 49 9.4 100 100 NNE 3 6 30.10 1019 7 11 0.00 0.00
7:53 am 07:53 Sunny 55 12.8 54 12.2 96 96 Calm 30.11 1020 7 11 0.00 0.00
8:53 am 08:53 Sunny 59 15 57 13.9 93 93 Calm 30.13 1020 10 16 0.00 0.00
9:53 am 09:53 Sunny 67 19.4 58 14.4 73 73 Calm 30.12 1020 10 16 0.00 0.00
10:53 am 10:53 Sunny 73 22.8 58 14.4 59 59 SSW 5 7 30.12 1020 10 16 0.00 0.00
11:53 am 11:53 Sunny 76 24.4 54 12.2 47 47 SSW 6 9 30.11 1020 10 16 0.00 0.00
12:53 pm 12:53 Sunny 77 25 54 12.2 45 45 VRB 6 9 30.10 1019 10 16 0.00 0.00
1:53 pm 13:53 Sunny 78 25.6 50 10 37 37 VRB 7 11 30.09 1019 10 16 0.00 0.00
2:53 pm 14:53 Sunny 78 25.6 52 11.1 40 40 SW 10 17 30.08 1019 10 16 0.00 0.00
3:53 pm 15:53 Sunny 79 26.1 51 10.6 38 38 S 10 17 30.06 1018 10 16 0.00 0.00
4:53 pm 16:53 Sunny 79 26.1 47 8.3 32 32 S 8 13 30.05 1018 10 16 0.00 0.00
5:53 pm 17:53 Sunny 79 26.1 46 7.8 31 31 WSW 7 11 30.05 1018 10 16 0.00 0.00
6:53 pm 18:53 Sunny 78 25.6 51 10.6 39 39 SSW 7 11 30.05 1018 10 16 0.00 0.00
7:53 pm 19:53 Sunny 74 23.3 53 11.7 48 48 S 8 13 30.06 1018 10 16 0.00 0.00
8:53 pm 20:53 Clear 66 18.9 57 13.9 73 73 S 5 7 30.06 1018 10 16 0.00 0.00
9:53 pm 21:53 Clear 62 16.7 56 13.3 80 80 Calm 30.08 1019 10 16 0.00 0.00
10:53 pm 22:53 Clear 61 16.1 55 12.8 81 81 Calm 30.09 1019 10 16 0.00 0.00
11:53 pm 23:53 Clear 59 15 55 12.8 87 87 Calm 30.10 1019 10 16 0.00 0.00

Powered by AerisWeather